TimeCST,TemperatureF,Dew PointF,Humidity,Sea Level PressureIn,VisibilityMPH,Wind Direction,Wind SpeedMPH,Gust SpeedMPH,PrecipitationIn,Events,Conditions,WindDirDegrees,DateUTC
12:55 AM,22.1,10.8,62,29.98,10.0,SSW,12.7,-,N/A,,Clear,200,2013-01-16 06:55:00
1:55 AM,21.7,10.4,62,29.96,10.0,South,9.2,18.4,N/A,,Clear,180,2013-01-16 07:55:00
2:55 AM,21.4,10.2,62,29.92,10.0,South,11.5,18.4,N/A,,Clear,190,2013-01-16 08:55:00
3:55 AM,21.4,10.6,63,29.88,10.0,SSW,9.2,-,N/A,,Partly Cloudy,200,2013-01-16 09:55:00
4:55 AM,21.6,10.9,64,29.82,10.0,South,6.9,-,N/A,,Scattered Clouds,180,2013-01-16 10:55:00
5:55 AM,23.2,12.6,64,29.78,10.0,South,12.7,-,N/A,,Overcast,180,2013-01-16 11:55:00
6:55 AM,26.6,14.0,59,29.76,10.0,SSW,16.1,23.0,N/A,,Overcast,210,2013-01-16 12:55:00
7:08 AM,26.6,14.0,59,29.76,10.0,SW,15.0,20.7,N/A,,Scattered Clouds,220,2013-01-16 13:08:00
7:31 AM,26.6,15.8,64,29.71,6.0,SW,15.0,18.4,N/A,Snow,Light Snow,220,2013-01-16 13:31:00
7:55 AM,26.6,17.6,69,29.77,7.0,SW,12.7,-,N/A,Snow,Light Snow,230,2013-01-16 13:55:00
8:31 AM,26.6,19.4,74,29.71,3.0,SW,16.1,-,N/A,Snow,Light Snow,220,2013-01-16 14:31:00
8:55 AM,26.6,21.2,80,29.77,3.0,SW,12.7,-,N/A,Snow,Light Snow,230,2013-01-16 14:55:00
9:24 AM,26.6,19.4,74,29.73,10.0,WSW,15.0,20.7,N/A,,Overcast,240,2013-01-16 15:24:00
9:55 AM,26.6,21.2,80,29.77,10.0,SW,15.0,-,N/A,,Overcast,230,2013-01-16 15:55:00
10:07 AM,26.6,21.2,80,29.77,10.0,SW,16.1,-,N/A,,Mostly Cloudy,230,2013-01-16 16:07:00
10:24 AM,26.6,21.2,80,29.72,6.0,SW,15.0,19.6,N/A,Snow,Light Snow,230,2013-01-16 16:24:00
10:55 AM,28.4,23.0,80,29.77,4.0,WSW,13.8,-,N/A,Snow,Light Snow,240,2013-01-16 16:55:00
11:55 AM,30.2,23.0,75,29.75,10.0,WSW,15.0,23.0,N/A,,Overcast,240,2013-01-16 17:55:00
12:55 PM,30.2,24.8,80,29.76,10.0,WSW,13.8,-,N/A,,Overcast,250,2013-01-16 18:55:00
1:30 PM,30.2,26.6,86,29.73,7.0,West,9.2,-,N/A,Snow,Light Snow,260,2013-01-16 19:30:00
1:55 PM,32.0,28.4,87,29.78,10.0,West,6.9,-,N/A,,Overcast,270,2013-01-16 19:55:00
2:55 PM,33.8,28.4,81,29.80,10.0,West,9.2,-,N/A,,Overcast,270,2013-01-16 20:55:00
3:36 PM,33.8,28.4,81,29.78,10.0,West,10.4,-,N/A,Snow,Light Snow,270,2013-01-16 21:36:00
3:55 PM,33.8,28.4,81,29.83,10.0,West,8.1,-,N/A,Snow,Light Snow,280,2013-01-16 21:55:00
4:49 PM,32.0,28.4,87,29.83,10.0,WSW,8.1,-,N/A,,Overcast,250,2013-01-16 22:49:00
4:55 PM,33.8,28.4,81,29.88,10.0,WSW,8.1,-,N/A,,Overcast,240,2013-01-16 22:55:00
5:09 PM,33.8,30.2,87,29.85,10.0,WSW,9.2,-,N/A,Snow,Light Snow,250,2013-01-16 23:09:00
5:48 PM,33.8,30.2,87,29.88,10.0,West,8.1,-,N/A,,Overcast,280,2013-01-16 23:48:00
5:55 PM,33.8,30.2,87,29.92,10.0,West,8.1,-,N/A,,Overcast,280,2013-01-16 23:55:00
6:08 PM,33.8,30.2,87,29.89,10.0,West,10.4,-,N/A,,Overcast,280,2013-01-17 00:08:00
6:15 PM,33.8,30.2,87,29.90,10.0,West,9.2,-,N/A,Snow,Light Snow,280,2013-01-17 00:15:00
6:29 PM,33.8,28.4,81,29.91,10.0,WNW,10.4,-,N/A,,Overcast,290,2013-01-17 00:29:00
6:55 PM,32.0,26.6,80,29.97,10.0,NW,12.7,19.6,N/A,,Overcast,310,2013-01-17 00:55:00
7:55 PM,30.2,23.0,75,30.01,10.0,NW,6.9,-,N/A,,Scattered Clouds,310,2013-01-17 01:55:00
8:55 PM,28.4,21.2,74,30.06,10.0,NW,15.0,-,N/A,,Scattered Clouds,310,2013-01-17 02:55:00
9:55 PM,24.8,14.0,64,30.08,10.0,NW,9.2,-,N/A,,Partly Cloudy,320,2013-01-17 03:55:00
10:55 PM,23.0,10.4,59,30.11,10.0,NW,10.4,-,N/A,,Partly Cloudy,320,2013-01-17 04:55:00
11:55 PM,21.2,8.6,58,30.15,10.0,NW,12.7,20.7,N/A,,Scattered Clouds,320,2013-01-17 05:55:00